Weather Roundup
Issued by NWS Chicago, IL

Home | Current Version | Previous Version | Graphics & Text | Print | Product List | Glossary On
Versions: 1 2 3 4 5 6 7 8 9 10 11 12 13 14 15 16 17 18 19 20 21 22 23 24 25 26 27 28 29 30 31 32 33 34 35 36 37 38 39 40 41 42 43 44 45 46 47 48 49 50
000
NZUS59 KLOT 272100
HRRLOT

CHICAGO AREA WEATHER ROUNDUP
NATIONAL WEATHER SERVICE CHICAGO/ROMEOVILLE IL
300 PM CST THU NOV 27 2014

NOTE: "FAIR" INDICATES FEW OR NO CLOUDS BELOW 12,000 FEET WITH NO
SIGNIFICANT WEATHER AND/OR OBSTRUCTIONS TO VISIBILITY.

* THESE STATIONS ARE NOT UNDER NWS QUALITY CONTROL. THEY ALSO MAY NOT
  REPORT WEATHER SUCH AS PRECIPITATION OR FOG.

ILZ005-006-012>014-019>023-272200-
NORTHEAST ILLINOIS

CITY           SKY/WX    TMP DP  RH WIND       PRES   REMARKS
OHARE          PTSUNNY   23  14  68 NW13      30.35R WCI  11
MIDWAY         PTSUNNY   26  15  63 NW13      30.36R WCI  15
AURORA         CLOUDY    25  16  68 W14       30.37R WCI  13
WAUKEGAN       CLOUDY    21  12  68 W12       30.35R WCI   9
DUPAGE AIRPORT FLURRIES  24  15  68 NW9       30.35R WCI  14
WHEELING       FLURRIES  22  13  68 NW10      30.38R WCI  11
NORTHERLY IS     N/A     25  15  66 W15         N/A  WCI  13
$$

WIZ051-052-058>065-066-070>072-272200-
SOUTHEAST WISCONSIN

CITY           SKY/WX    TMP DP  RH WIND       PRES   REMARKS
MILWAUKEE      FLURRIES  22  11  62 NW8       30.35R WCI  12
KENOSHA*       FLURRIES  21  11  65 NW10      30.35R WCI  10
RACINE*        CLOUDY    22  10  60 NW10      30.36R WCI  11
WAUKESHA       FLURRIES  18  10  73 NW10      30.35R WCI   6
$$

INZ001>003-010>013-019-020-272200-
NORTHWEST INDIANA

CITY           SKY/WX    TMP DP  RH WIND       PRES   REMARKS
GARY*          CLOUDY    28  16  59 W18       30.36R WCI  16
MICHIGAN CITY* NOT AVBL
RENSSELAER*    NOT AVBL
$$

LMZ740>746-272200-
SOUTHERN LAKE MICHIGAN

STATION/POSITION TIME  SKY/WX   TEMP WIND        PRES    VSBY
                                AIR  DIR/SP/G
                 (UTC)          (F)  (DEG/KT/KT) (MB)    (MI)
HARRISON CRIB    2000            24  300/ 15/ 19   N/A
BURNHAM HARBOR   2100            25  260/ 11/ 15   N/A
CALUMET HARBOR   2000            25  290/  8/ 13 1026.6R
BURNS HARBOR     NOT AVBL
MICHIGAN CITY    2000            27  260/ 21/ 24   N/A
$$

ABBREVIATIONS USED IN REMARKS
   TC - TEMPERATURE IN CELSIUS
  WCI - WIND CHILL INDEX
   HX - HEAT INDEX
  VSB - VISIBILITY
$$



USA.gov is the U.S. government's official web portal to all federal, state and local government web resources and services.